SQ5DCP-1 Weather Reports


Display with metric or nautical units.
time (UTC)temp
F
wind
direction
speed
MPH
gust
MPH
rain 1hr
in
rain 24hr
in
rain mn
in
humidity
%
barometer
mb
20260831141034 73 293 1.0 6.0 0.01 0.01 0.01 66 1014.1
20260831140533 73 58 0.0 2.0 0.01 0.01 0.01 66 1013.9
20260831140030 73 51 1.0 3.0 0.01 0.01 0.01 66 1014.1
20260831135528 73 341 3.0 8.0 0.01 0.01 0.01 65 1014.5
20260831135026 73 351 2.0 7.0 0.00 0.00 0.00 65 1014.5
20260831134524 74 12 1.0 7.0 0.00 0.00 0.00 65 1014.4
20260831134059 74 356 3.0 9.0 0.00 0.00 0.00 64 1014.5
20260831134023 74 356 3.0 9.0 0.00 0.00 0.00 64 1014.5
20260831133520 75 348 3.0 9.0 0.00 0.00 0.00 62 1014.7
20260831133019 75 302 1.0 4.0 0.00 0.00 0.00 60 1014.7
20260831132517 76 299 1.0 3.0 0.00 0.00 0.00 59 1014.8
20260831132035 76 315 3.0 7.0 0.00 0.00 0.00 57 1014.7
20260831131533 77 344 6.0 16.0 0.00 0.00 0.00 55 1014.7
20260831131031 78 321 9.0 21.0 0.00 0.00 0.00 53 1014.9
20260831130529 78 327 7.0 13.0 0.00 0.00 0.00 52 1014.8
20260831130028 79 337 6.0 13.0 0.00 0.00 0.00 50 1014.5
20260831125525 80 303 7.0 16.0 0.00 0.00 0.00 49 1014.4
20260831125023 80 296 4.0 13.0 0.00 0.00 0.00 49 1014.4
20260831124521 80 289 3.0 8.0 0.00 0.00 0.00 49 1014.3
20260831124020 80 289 3.0 9.0 0.00 0.00 0.00 50 1014.4
20260831123518 80 279 2.0 7.0 0.00 0.00 0.00 50 1014.4
20260831123016 80 291 1.0 4.0 0.00 0.00 0.00 49 1014.5
20260831122535 80 283 2.0 6.0 0.00 0.00 0.00 48 1014.5
20260831122033 80 255 4.0 9.0 0.00 0.00 0.00 48 1014.4
20260831121530 80 258 2.0 7.0 0.00 0.00 0.00 48 1014.4
20260831121029 80 276 3.0 8.0 0.00 0.00 0.00 48 1014.6
20260831120527 80 253 4.0 10.0 0.00 0.00 0.00 48 1014.5
20260831120025 80 235 4.0 11.0 0.00 0.00 0.00 47 1014.5
20260831115523 80 213 4.0 8.0 0.00 0.00 0.00 46 1014.4
20260831115021 81 192 4.0 10.0 0.00 0.00 0.00 46 1014.3
20260831114519 81 211 4.0 9.0 0.00 0.00 0.00 45 1014.4
20260831114017 81 248 5.0 10.0 0.00 0.00 0.00 45 1014.3
20260831113515 81 232 3.0 8.0 0.00 0.00 0.00 45 1014.3
20260831113034 81 243 4.0 11.0 0.00 0.00 0.00 45 1014.2
20260831112532 81 246 4.0 10.0 0.00 0.00 0.00 45 1014.2
20260831112030 81 254 3.0 8.0 0.00 0.00 0.00 46 1014.2
20260831111528 81 219 3.0 7.0 0.00 0.00 0.00 46 1014.2
20260831111026 81 205 2.0 4.0 0.00 0.00 0.00 45 1014.2
20260831110524 81 227 3.0 8.0 0.00 0.00 0.00 45 1014.3
20260831110022 81 227 4.0 7.0 0.00 0.00 0.00 45 1014.2
20260831105521 81 232 3.0 8.0 0.00 0.00 0.00 45 1014.2
20260831105019 82 277 3.0 8.0 0.00 0.00 0.00 43 1014.2
20260831104517 82 286 5.0 10.0 0.00 0.00 0.00 44 1014.4
20260831104035 81 239 4.0 10.0 0.00 0.00 0.00 45 1014.3
20260831103533 81 254 3.0 11.0 0.00 0.00 0.00 46 1014.3
20260831103031 81 264 1.0 3.0 0.00 0.00 0.00 47 1014.3
20260831102530 81 182 2.0 6.0 0.00 0.00 0.00 46 1014.3
20260831102028 81 285 3.0 8.0 0.00 0.00 0.00 46 1014.4
20260831101526 81 240 4.0 9.0 0.00 0.00 0.00 46 1014.4
20260831101024 81 248 3.0 7.0 0.00 0.00 0.00 45 1014.5
20260831100522 81 256 3.0 8.0 0.00 0.00 0.00 46 1014.5
20260831100020 81 269 3.0 8.0 0.00 0.00 0.00 43 1014.5
20260831095518 81 289 5.0 10.0 0.00 0.00 0.00 46 1014.6
20260831095048 80 275 3.0 7.0 0.00 0.00 0.00 48 1014.6
20260831095016 80 275 3.0 7.0 0.00 0.00 0.00 48 1014.6
20260831094535 80 271 4.0 9.0 0.00 0.00 0.00 46 1014.6
20260831094033 80 273 5.0 10.0 0.00 0.00 0.00 46 1014.7
20260831093532 80 284 4.0 8.0 0.00 0.00 0.00 47 1014.7
20260831093029 80 293 3.0 10.0 0.00 0.00 0.00 46 1014.7
20260831092527 80 230 4.0 11.0 0.00 0.00 0.00 47 1014.6
20260831092025 80 261 3.0 7.0 0.00 0.00 0.00 49 1014.6
20260831091523 80 242 4.0 9.0 0.00 0.00 0.00 49 1014.7
20260831091022 80 231 4.0 10.0 0.00 0.00 0.00 51 1014.7
20260831090519 79 274 4.0 11.0 0.00 0.00 0.00 52 1014.7
20260831090018 79 226 4.0 11.0 0.00 0.00 0.00 52 1014.7
20260831085516 78 228 2.0 6.0 0.00 0.00 0.00 56 1014.8
20260831085034 78 210 1.0 4.0 0.00 0.00 0.00 56 1014.8
20260831084532 78 202 3.0 8.0 0.00 0.00 0.00 57 1014.9
20260831084030 77 151 2.0 7.0 0.00 0.00 0.00 58 1014.8
20260831083528 77 165 1.0 4.0 0.00 0.00 0.00 60 1014.9
20260831083026 76 217 2.0 4.0 0.00 0.00 0.00 60 1014.9
20260831082525 76 156 2.0 4.0 0.00 0.00 0.00 62 1015.0
20260831082023 75 187 1.0 7.0 0.00 0.00 0.00 62 1015.0
20260831081521 75 233 1.0 4.0 0.00 0.00 0.00 64 1014.9
20260831081019 74 183 0.0 3.0 0.00 0.00 0.00 64 1014.9
20260831080518 74 180 2.0 3.0 0.00 0.00 0.00 66 1015.0
20260831080048 73 169 2.0 3.0 0.00 0.00 0.00 66 1015.0
20260831080016 73 169 2.0 3.0 0.00 0.00 0.00 66 1015.0
20260831075534 73 128 1.0 2.0 0.00 0.00 0.00 67 1015.0
20260831075032 72 120 0.0 3.0 0.00 0.00 0.00 68 1015.0
20260831074530 72 152 0.0 2.0 0.00 0.00 0.00 69 1015.1
20260831074028 71 165 1.0 4.0 0.00 0.00 0.00 69 1015.1
20260831073526 71 187 0.0 2.0 0.00 0.00 0.00 70 1015.1
20260831073105 70 231 0.0 1.0 0.00 0.00 0.00 70 1015.2
20260831073024 70 231 0.0 1.0 0.00 0.00 0.00 70 1015.2
20260831072523 70 205 0.0 1.0 0.00 0.00 0.00 70 1015.3
20260831072021 69 0.0 0.0 0.00 0.00 0.00 70 1015.3
20260831071519 69 103 0.0 2.0 0.00 0.00 0.00 71 1015.2
20260831071048 68 115 1.0 2.0 0.00 0.00 0.00 72 1015.2
20260831071017 68 115 1.0 2.0 0.00 0.00 0.00 72 1015.2
20260831070535 68 0.0 0.0 0.00 0.00 0.00 73 1015.2
20260831070033 67 0.0 0.0 0.00 0.00 0.00 73 1015.2
20260831065531 67 0.0 0.0 0.00 0.00 0.00 74 1015.2
20260831065030 67 0.0 0.0 0.00 0.00 0.00 74 1015.2
20260831064528 66 160 0.0 1.0 0.00 0.00 0.00 74 1015.2
20260831064026 66 117 0.0 2.0 0.00 0.00 0.00 74 1015.2
20260831063524 66 92 1.0 3.0 0.00 0.00 0.00 75 1015.2
20260831063023 65 102 1.0 3.0 0.00 0.00 0.00 75 1015.2
20260831062521 65 0.0 0.0 0.00 0.00 0.00 76 1015.2
20260831062018 64 0.0 0.0 0.00 0.00 0.00 76 1015.2
20260831061517 64 0.0 0.0 0.00 0.00 0.00 77 1015.3
20260831061035 63 0.0 0.0 0.00 0.00 0.00 77 1015.3
20260831060533 63 0.0 0.0 0.00 0.00 0.00 77 1015.3
20260831060030 63 0.0 0.0 0.00 0.00 0.00 77 1015.3
20260831055528 62 0.0 0.0 0.00 0.00 0.00 77 1015.4
20260831055026 62 0.0 0.0 0.00 0.00 0.00 77 1015.3
20260831054525 62 0.0 0.0 0.00 0.00 0.00 76 1015.4
20260831054022 62 0.0 0.0 0.00 0.00 0.00 76 1015.3
20260831053521 62 0.0 0.0 0.00 0.00 0.00 76 1015.4
20260831053019 61 0.0 0.0 0.00 0.00 0.00 76 1015.3
20260831052517 61 0.0 0.0 0.00 0.00 0.00 76 1015.3
20260831052403 61 0.0 0.0 0.00 0.00 0.00
20260831052035 61 0.0 0.0 0.00 0.00 0.00 76 1015.3
20260831051533 61 0.0 0.0 0.00 0.00 0.00 76 1015.3
20260831051031 61 0.0 0.0 0.00 0.00 0.00 76 1015.4
20260831050529 61 0.0 0.0 0.00 0.00 0.00 76 1015.2
20260831050028 61 0.0 0.0 0.00 0.00 0.00 76 1015.4
20260831045525 60 0.0 0.0 0.00 0.00 0.00 76 1015.4
20260831045023 60 0.0 0.0 0.00 0.00 0.00 76 1015.4
20260831044521 60 0.0 0.0 0.00 0.00 0.00 76 1015.4
20260831044019 60 0.0 0.0 0.00 0.00 0.00 76 1015.4
20260831043518 60 0.0 0.0 0.00 0.00 0.00 76 1015.5
20260831043035 60 0.0 0.0 0.00 0.00 0.00 76 1015.4
20260831042534 60 0.0 0.0 0.00 0.00 0.00 76 1015.4
20260831042032 60 0.0 0.0 0.00 0.00 0.00 76 1015.3
20260831041530 61 0.0 0.0 0.00 0.00 0.00 76 1015.3
20260831041028 61 0.0 0.0 0.00 0.00 0.00 76 1015.3
20260831040526 61 0.0 0.0 0.00 0.00 0.00 76 1015.2
20260831040024 61 0.0 0.0 0.00 0.00 0.00 76 1015.2
20260831035522 61 0.0 0.0 0.00 0.00 0.00 75 1015.1
20260831035020 61 0.0 0.0 0.00 0.00 0.00 76 1015.1
20260831034519 61 0.0 0.0 0.00 0.00 0.00 76 1015.2
20260831034017 61 0.0 0.0 0.00 0.00 0.00 75 1015.2
20260831033534 61 0.0 0.0 0.00 0.00 0.00 75 1015.2
20260831033033 61 0.0 0.0 0.00 0.00 0.00 75 1015.2
20260831032531 61 0.0 0.0 0.00 0.00 0.00 75 1015.1
20260831032131 0 0.0 0.0 0.00 0.00 0.00
20260831032029 62 0.0 0.0 0.00 0.00 0.00 75 1015.1
20260831031527 62 0.0 0.0 0.00 0.00 0.00 75 1015.2
20260831031025 62 0.0 0.0 0.00 0.00 0.00 74 1015.3
20260831030523 62 0.0 0.0 0.00 0.00 0.00 74 1015.3
20260831030022 62 0.0 0.0 0.00 0.00 0.00 74 1015.3
20260831025519 62 0.0 0.0 0.00 0.00 0.00 74 1015.3
20260831025050 62 0.0 0.0 0.00 0.00 0.00 74 1015.2
20260831025017 62 0.0 0.0 0.00 0.00 0.00 74 1015.2
20260831024516 62 0.0 0.0 0.00 0.00 0.00 74 1015.2
20260831024034 63 0.0 0.0 0.00 0.00 0.00 74 1015.3
20260831023532 63 0.0 0.0 0.00 0.00 0.00 74 1015.4
20260831023030 63 0.0 0.0 0.00 0.00 0.00 73 1015.4
20260831022528 63 0.0 0.0 0.00 0.00 0.00 73 1015.4
20260831022026 63 0.0 0.0 0.00 0.00 0.00 73 1015.4
20260831021524 63 0.0 0.0 0.00 0.00 0.00 73 1015.4
20260831021022 63 0.0 0.0 0.00 0.00 0.00 73 1015.4
20260831020520 63 0.0 0.0 0.00 0.00 0.00 73 1015.4
20260831020018 63 0.0 0.0 0.00 0.00 0.00 73 1015.4
20260831015516 63 0.0 0.0 0.00 0.00 0.00 73 1015.4
20260831015035 63 0.0 0.0 0.00 0.00 0.00 73 1015.5
20260831014533 63 0.0 0.0 0.00 0.00 0.00 73 1015.4
20260831014031 64 0.0 0.0 0.00 0.00 0.00 73 1015.4
20260831013529 64 0.0 0.0 0.00 0.00 0.00 73 1015.4
20260831013027 64 0.0 0.0 0.00 0.00 0.00 73 1015.4
20260831012525 64 0.0 0.0 0.00 0.00 0.00 73 1015.5
20260831012024 64 0.0 0.0 0.00 0.00 0.00 73 1015.4
20260831011521 64 0.0 0.0 0.00 0.00 0.00 73 1015.4
20260831011019 64 0.0 0.0 0.00 0.00 0.00 73 1015.5
20260831010518 64 0.0 0.0 0.00 0.00 0.00 73 1015.5
20260831010048 64 0.0 0.0 0.00 0.00 0.00 72 1015.6
20260831010016 64 0.0 0.0 0.00 0.00 0.00 72 1015.6
20260831005534 64 0.0 0.0 0.00 0.00 0.00 72 1015.6
20260831005033 64 0.0 0.0 0.00 0.00 0.00 72 1015.7
20260831004530 64 0.0 0.0 0.00 0.00 0.00 72 1015.7
20260831004028 64 0.0 0.0 0.00 0.00 0.00 72 1015.7
20260831003526 64 0.0 0.0 0.00 0.00 0.00 72 1015.8
20260831003024 64 0.0 0.0 0.00 0.00 0.00 72 1015.7
20260831002523 64 0.0 0.0 0.00 0.00 0.00 72 1015.8
20260831002021 64 0.0 0.0 0.00 0.00 0.00 72 1015.8
20260831001519 64 0.0 0.0 0.00 0.00 0.00 71 1015.9
20260831001017 64 0.0 0.0 0.00 0.00 0.00 71 1015.9
20260831000535 64 0.0 0.0 0.00 0.00 0.00 71 1015.9
20260831000033 64 0.0 0.0 0.00 0.00 0.00 71 1015.9
20260830235532 64 0.0 0.0 0.00 0.00 0.00 71 1015.9
20260830235030 64 0.0 0.0 0.00 0.00 0.00 71 1016.0
20260830234528 64 0.0 0.0 0.00 0.00 0.00 71 1015.9
20260830234026 64 0.0 0.0 0.00 0.00 0.00 71 1015.9
20260830233524 64 0.0 0.0 0.00 0.00 0.00 71 1016.0
20260830233022 64 0.0 0.0 0.00 0.00 0.00 71 1016.0
20260830232521 64 0.0 0.0 0.00 0.00 0.00 70 1015.9
20260830232018 64 0.0 0.0 0.00 0.00 0.00 70 1015.9
20260830231516 64 0.0 0.0 0.00 0.00 0.00 70 1015.9
20260830231035 65 0.0 0.0 0.00 0.00 0.00 70 1015.9
20260830230533 65 0.0 0.0 0.00 0.00 0.00 70 1015.9
20260830230031 65 0.0 0.0 0.00 0.00 0.00 70 1016.0
20260830225529 65 0.0 0.0 0.00 0.00 0.00 69 1016.0
20260830225027 65 0.0 0.0 0.00 0.00 0.00 69 1015.9
20260830224525 65 0.0 0.0 0.00 0.00 0.00 69 1016.0
20260830224023 65 0.0 0.0 0.00 0.00 0.00 69 1016.0
20260830223521 66 0.0 0.0 0.00 0.00 0.00 68 1015.9
20260830223019 66 0.0 0.0 0.00 0.00 0.00 68 1015.9
20260830222518 66 0.0 0.0 0.00 0.00 0.00 68 1015.9
20260830222016 66 0.0 0.0 0.00 0.00 0.00 68 1015.8
20260830221534 66 0.0 0.0 0.00 0.00 0.00 68 1015.9
20260830221032 66 0.0 0.0 0.00 0.00 0.00 67 1015.9
20260830220529 66 193 0.0 2.0 0.00 0.00 0.00 67 1015.9
20260830220028 67 194 1.0 3.0 0.00 0.00 0.00 67 1016.0
20260830215526 67 189 1.0 3.0 0.00 0.00 0.00 67 1015.9
20260830215056 67 186 2.0 3.0 0.00 0.00 0.00 67 1016.0
20260830215024 67 186 2.0 3.0 0.00 0.00 0.00 67 1016.0
20260830214522 67 186 2.0 3.0 0.00 0.00 0.00 67 1015.9
20260830214021 67 182 2.0 3.0 0.00 0.00 0.00 67 1015.9
20260830213518 67 0.0 0.0 0.00 0.00 0.00 67 1015.9
20260830213047 67 0.0 0.0 0.00 0.00 0.00 67 1015.9
20260830213016 67 0.0 0.0 0.00 0.00 0.00 67 1015.9
20260830212535 67 185 0.0 3.0 0.00 0.00 0.00 67 1015.8
20260830212033 67 192 0.0 2.0 0.00 0.00 0.00 67 1015.9
20260830211531 67 187 1.0 2.0 0.00 0.00 0.00 67 1015.9
20260830211029 67 188 1.0 3.0 0.00 0.00 0.00 67 1015.9
20260830210527 67 192 2.0 4.0 0.00 0.00 0.00 66 1015.8
20260830210025 68 185 2.0 3.0 0.00 0.00 0.00 66 1015.8
20260830205523 68 184 2.0 3.0 0.00 0.00 0.00 66 1015.8
20260830205021 68 184 2.0 4.0 0.00 0.00 0.00 66 1015.7
20260830204519 68 190 2.0 3.0 0.00 0.00 0.00 66 1015.7
20260830204052 68 192 1.0 3.0 0.00 0.00 0.00 66 1015.8
20260830204018 68 192 1.0 3.0 0.00 0.00 0.00 66 1015.8
20260830203516 68 189 2.0 4.0 0.00 0.00 0.00 66 1015.8
20260830203034 68 192 0.0 2.0 0.00 0.00 0.00 65 1015.7
20260830202532 68 199 1.0 2.0 0.00 0.00 0.00 65 1015.7
20260830202030 68 193 1.0 3.0 0.00 0.00 0.00 65 1015.7
20260830201528 68 195 1.0 4.0 0.00 0.00 0.00 65 1015.8
20260830201026 68 183 0.0 3.0 0.00 0.00 0.00 65 1015.7
20260830200524 69 194 0.0 2.0 0.00 0.00 0.00 64 1015.8
20260830200023 69 195 0.0 1.0 0.00 0.00 0.00 64 1015.7
20260830195521 69 196 1.0 2.0 0.00 0.00 0.00 64 1015.8
20260830195019 69 196 0.0 2.0 0.00 0.00 0.00 64 1015.8
20260830194517 69 190 0.0 2.0 0.00 0.00 0.00 64 1015.8
20260830194036 69 0.0 0.0 0.00 0.00 0.00 63 1015.8
20260830193534 69 0.0 0.0 0.00 0.00 0.00 63 1015.8
20260830193031 70 0.0 0.0 0.00 0.00 0.00 63 1015.9
20260830192530 70 0.0 0.0 0.00 0.00 0.00 63 1015.8
20260830192029 70 0.0 0.0 0.00 0.00 0.00 63 1015.7
20260830191526 70 0.0 0.0 0.00 0.00 0.00 63 1015.7
20260830191024 70 0.0 0.0 0.00 0.00 0.00 62 1015.7
20260830190522 71 0.0 0.0 0.00 0.00 0.00 62 1015.8
20260830190020 71 0.0 0.0 0.00 0.00 0.00 62 1015.7
20260830185518 71 183 1.0 2.0 0.00 0.00 0.00 62 1015.7
20260830185016 71 185 1.0 2.0 0.00 0.00 0.00 62 1015.7
20260830184534 71 193 1.0 3.0 0.00 0.00 0.00 61 1015.7
20260830184032 71 190 1.0 3.0 0.00 0.00 0.00 61 1015.7
20260830183531 72 187 2.0 4.0 0.00 0.00 0.00 61 1015.6
20260830183028 72 178 1.0 4.0 0.00 0.00 0.00 60 1015.6
20260830182527 72 0.0 0.0 0.00 0.00 0.00 60 1015.6
20260830182025 72 0.0 0.0 0.00 0.00 0.00 60 1015.6
20260830181523 73 0.0 0.0 0.00 0.00 0.00 59 1015.6
20260830181021 73 0.0 0.0 0.00 0.00 0.00 58 1015.6
20260830180519 73 0.0 0.0 0.00 0.00 0.00 58 1015.5
20260830180017 73 0.0 0.0 0.00 0.00 0.00 58 1015.4
20260830175535 74 0.0 0.0 0.00 0.00 0.00 57 1015.4
20260830175034 74 0.0 0.0 0.00 0.00 0.00 57 1015.4
20260830174532 74 0.0 0.0 0.00 0.00 0.00 57 1015.4
20260830174030 74 0.0 0.0 0.00 0.00 0.00 57 1015.4
20260830173528 75 183 0.0 1.0 0.00 0.00 0.00 56 1015.3
20260830173026 75 190 0.0 1.0 0.00 0.00 0.00 56 1015.2
20260830172524 75 184 2.0 4.0 0.00 0.00 0.00 55 1015.3
20260830172022 75 186 1.0 4.0 0.00 0.00 0.00 55 1015.2
20260830171520 76 197 1.0 3.0 0.00 0.00 0.00 54 1015.2
20260830171018 76 186 2.0 4.0 0.00 0.00 0.00 54 1015.2
20260830170516 76 192 2.0 4.0 0.00 0.00 0.00 53 1015.2
20260830170034 76 185 2.0 6.0 0.00 0.00 0.00 52 1015.2
20260830165532 76 182 2.0 7.0 0.00 0.00 0.00 52 1015.1
20260830165031 77 189 2.0 4.0 0.00 0.00 0.00 51 1015.2
20260830164529 77 198 2.0 4.0 0.00 0.00 0.00 51 1015.2
20260830164027 77 211 1.0 7.0 0.00 0.00 0.00 50 1015.0
20260830163525 77 186 2.0 8.0 0.00 0.00 0.00 50 1015.0
20260830163024 77 216 2.0 7.0 0.00 0.00 0.00 50 1015.0
20260830162521 77 212 2.0 6.0 0.00 0.00 0.00 50 1015.0
20260830162019 77 211 3.0 7.0 0.00 0.00 0.00 49 1015.0
20260830161517 77 202 3.0 8.0 0.00 0.00 0.00 49 1015.0
20260830161036 78 179 4.0 9.0 0.00 0.00 0.00 49 1015.0
20260830160534 78 215 3.0 8.0 0.00 0.00 0.00 49 1015.0
20260830160032 78 216 4.0 10.0 0.00 0.00 0.00 49 1015.0
20260830155530 78 187 3.0 8.0 0.00 0.00 0.00 49 1015.0
20260830155028 78 187 2.0 7.0 0.00 0.00 0.00 48 1015.0
20260830154526 78 190 3.0 6.0 0.00 0.00 0.00 48 1015.0
20260830154024 78 187 3.0 10.0 0.00 0.00 0.00 48 1015.1
20260830153522 78 192 3.0 7.0 0.00 0.00 0.00 47 1015.2
20260830153020 78 188 4.0 11.0 0.00 0.00 0.00 47 1015.2
20260830152518 78 189 3.0 7.0 0.00 0.00 0.00 47 1015.1
20260830152016 78 227 4.0 9.0 0.00 0.00 0.00 47 1015.1
20260830151535 78 222 2.0 6.0 0.00 0.00 0.00 46 1015.1
20260830151033 78 224 3.0 7.0 0.00 0.00 0.00 46 1015.3
20260830150530 78 236 3.0 9.0 0.00 0.00 0.00 46 1015.2
20260830150029 78 207 3.0 8.0 0.00 0.00 0.00 46 1015.3
20260830145527 78 171 4.0 7.0 0.00 0.00 0.00 47 1015.3
20260830145025 78 207 2.0 4.0 0.00 0.00 0.00 46 1015.4
20260830144523 78 230 3.0 6.0 0.00 0.00 0.00 46 1015.3
20260830144021 78 184 2.0 7.0 0.00 0.00 0.00 45 1015.5
20260830143519 79 201 5.0 11.0 0.00 0.00 0.00 44 1015.5
20260830143017 79 199 4.0 10.0 0.00 0.00 0.00 44 1015.5
20260830142535 79 175 4.0 10.0 0.00 0.00 0.00 45 1015.5
20260830142033 79 198 2.0 8.0 0.00 0.00 0.00 45 1015.5
20260830141531 79 245 3.0 8.0 0.00 0.00 0.00 45 1015.4